When you browse on this site, cookies collect data to enhance your experience and personalize the content and advertising you see.
Visit our Privacy Policy to learn more. By continuing to use the site, you agree to this use of cookies and data.
  • In Spain
  • List of Countries
  • For 7 days
  • Water Temperature
  • Weather Map
  • Weather Widgets
  • user-avatar
    Login

    Hourly Weather Safaga

    Today, 17 February, Monday

    Time Temperature Precipitation Wind Pressure Humidity
    00:00 +9°C° 0 mm 2 mps 703 mmHg 62%
    01:00 +8°C° 0 mm 2 mps 703 mmHg 67%
    02:00 +8°C° 0 mm 1 mps 702 mmHg 73%
    03:00 +8°C° 0 mm 1 mps 702 mmHg 75%
    04:00 +7°C° 0 mm 1 mps 702 mmHg 77%
    05:00 +7°C° 0 mm 1 mps 702 mmHg 79%
    06:00 +9°C° 0 mm 1 mps 703 mmHg 69%
    07:00 +11°C° 0 mm 1 mps 704 mmHg 60%
    08:00 +13°C° 0 mm 1 mps 704 mmHg 51%
    09:00 +15°C° 0 mm 1 mps 705 mmHg 44%
    10:00 +18°C° 0 mm 1 mps 705 mmHg 37%
    11:00 +20°C° 0 mm 1 mps 705 mmHg 29%
    12:00 +20°C° 0 mm 2 mps 705 mmHg 27%
    13:00 +21°C° 0 mm 2 mps 704 mmHg 24%
    14:00 +22°C° 0 mm 3 mps 704 mmHg 21%
    15:00 +21°C° 0 mm 3 mps 704 mmHg 26%
    16:00 +20°C° 0 mm 3 mps 703 mmHg 30%
    17:00 +19°C° 0 mm 2 mps 703 mmHg 35%
    18:00 +17°C° 0 mm 2 mps 703 mmHg 47%
    19:00 +14°C° 0 mm 2 mps 703 mmHg 59%
    20:00 +12°C° 0 mm 2 mps 703 mmHg 72%
    21:00 +12°C° 0 mm 1 mps 703 mmHg 73%
    22:00 +11°C° 0 mm 1 mps 703 mmHg 75%
    23:00 +10°C° 0 mm 1 mps 703 mmHg 77%

    Tomorrow, 18 February, Tuesday

    Time Temperature Precipitation Wind Pressure Humidity
    00:00 +10°C° 0 mm 1 mps 703 mmHg 78%
    01:00 +9°C° 0 mm 1 mps 702 mmHg 79%
    02:00 +8°C° 0 mm 0 mps 702 mmHg 79%
    03:00 +7°C° 0 mm 0 mps 702 mmHg 80%
    04:00 +7°C° 0 mm 0 mps 702 mmHg 81%
    05:00 +6°C° 0 mm 0 mps 702 mmHg 82%
    06:00 +9°C° 0 mm 1 mps 703 mmHg 73%
    07:00 +11°C° 0 mm 1 mps 704 mmHg 63%
    08:00 +13°C° 0 mm 1 mps 704 mmHg 54%
    09:00 +15°C° 0 mm 2 mps 705 mmHg 48%
    10:00 +17°C° 0 mm 3 mps 705 mmHg 42%
    11:00 +18°C° 0 mm 4 mps 705 mmHg 35%
    12:00 +19°C° 0 mm 4 mps 705 mmHg 32%
    13:00 +20°C° 0 mm 5 mps 704 mmHg 29%
    14:00 +21°C° 0 mm 5 mps 704 mmHg 25%
    15:00 +20°C° 0 mm 5 mps 704 mmHg 26%
    16:00 +20°C° 0 mm 5 mps 704 mmHg 27%
    17:00 +19°C° 0 mm 5 mps 704 mmHg 28%
    18:00 +16°C° 0 mm 5 mps 704 mmHg 35%
    19:00 +14°C° 0 mm 5 mps 704 mmHg 42%
    20:00 +12°C° 0 mm 4 mps 704 mmHg 50%
    21:00 +11°C° 0 mm 4 mps 704 mmHg 52%
    22:00 +11°C° 0 mm 4 mps 704 mmHg 54%
    23:00 +10°C° 0 mm 3 mps 704 mmHg 56%

    Day after tomorrow, 19 February, Wednesday

    Time Temperature Precipitation Wind Pressure Humidity
    00:00 +10°C° 0 mm 3 mps 704 mmHg 59%
    01:00 +9°C° 0 mm 3 mps 703 mmHg 63%
    02:00 +9°C° 0 mm 3 mps 703 mmHg 66%
    03:00 +8°C° 0 mm 3 mps 703 mmHg 68%
    04:00 +8°C° 0 mm 3 mps 703 mmHg 70%
    05:00 +8°C° 0 mm 3 mps 703 mmHg 72%
    06:00 +8°C° 0 mm 4 mps 703 mmHg 63%
    07:00 +10°C° 0 mm 4 mps 704 mmHg 54%
    08:00 +10°C° 0 mm 5 mps 704 mmHg 45%
    09:00 +13°C° 0 mm 6 mps 705 mmHg 41%
    10:00 +14°C° 0 mm 7 mps 705 mmHg 37%
    11:00 +15°C° 0 mm 8 mps 705 mmHg 33%
    12:00 +16°C° 0 mm 9 mps 705 mmHg 31%
    13:00 +17°C° 0 mm 9 mps 705 mmHg 30%
    14:00 +17°C° 0 mm 10 mps 704 mmHg 29%
    15:00 +17°C° 0 mm 9 mps 704 mmHg 30%
    16:00 +16°C° 0 mm 9 mps 704 mmHg 30%
    17:00 +16°C° 0 mm 9 mps 704 mmHg 31%
    18:00 +13°C° 0 mm 8 mps 705 mmHg 35%
    19:00 +13°C° 0 mm 6 mps 705 mmHg 40%
    20:00 +10°C° 0 mm 5 mps 705 mmHg 44%
    21:00 +10°C° 0 mm 4 mps 705 mmHg 49%
    22:00 +10°C° 0 mm 4 mps 705 mmHg 53%
    23:00 +9°C° 0 mm 3 mps 705 mmHg 58%

    20 February, Thursday

    Time Temperature Precipitation Wind Pressure Humidity
    00:00 +8°C° 0 mm 3 mps 705 mmHg 62%
    01:00 +8°C° 0 mm 2 mps 705 mmHg 66%
    02:00 +7°C° 0 mm 2 mps 705 mmHg 70%
    03:00 +6°C° 0 mm 2 mps 705 mmHg 73%
    04:00 +6°C° 0 mm 2 mps 705 mmHg 76%
    05:00 +6°C° 0 mm 1 mps 704 mmHg 80%
    06:00 +8°C° 0 mm 1 mps 705 mmHg 72%
    07:00 +10°C° 0 mm 1 mps 706 mmHg 64%
    08:00 +12°C° 0 mm 1 mps 707 mmHg 56%
    09:00 +14°C° 0 mm 1 mps 707 mmHg 47%
    10:00 +16°C° 0 mm 2 mps 708 mmHg 38%
    11:00 +17°C° 0 mm 2 mps 708 mmHg 29%
    12:00 +19°C° 0 mm 2 mps 707 mmHg 26%
    13:00 +20°C° 0 mm 3 mps 707 mmHg 23%
    14:00 +21°C° 0 mm 4 mps 706 mmHg 20%
    15:00 +20°C° 0 mm 3 mps 706 mmHg 26%
    16:00 +18°C° 0 mm 3 mps 706 mmHg 32%
    17:00 +17°C° 0 mm 3 mps 706 mmHg 38%
    18:00 +15°C° 0 mm 2 mps 706 mmHg 50%
    19:00 +13°C° 0 mm 2 mps 705 mmHg 63%
    20:00 +9°C° 0 mm 2 mps 705 mmHg 75%
    21:00 +10°C° 0 mm 1 mps 705 mmHg 77%
    22:00 +9°C° 0 mm 1 mps 705 mmHg 78%
    23:00 +7°C° 0 mm 0 mps 705 mmHg 80%

    21 February, Friday

    Time Temperature Precipitation Wind Pressure Humidity
    00:00 +7°C° 0 mm 0 mps 705 mmHg 79%
    01:00 +7°C° 0 mm 0 mps 704 mmHg 78%
    02:00 +6°C° 0 mm 0 mps 704 mmHg 77%
    03:00 +6°C° 0 mm 0 mps 704 mmHg 78%
    04:00 +6°C° 0 mm 0 mps 704 mmHg 78%
    05:00 +5°C° 0 mm 0 mps 704 mmHg 78%
    06:00 +9°C° 0 mm 1 mps 705 mmHg 67%
    07:00 +11°C° 0 mm 1 mps 706 mmHg 55%
    08:00 +14°C° 0 mm 1 mps 706 mmHg 44%
    15:00 +22°C° 0 mm 4 mps 705 mmHg 17%
    16:00 +21°C° 0 mm 4 mps 705 mmHg 17%
    17:00 +21°C° 0 mm 4 mps 705 mmHg 18%
    18:00 +18°C° 0 mm 4 mps 705 mmHg 22%
    19:00 +15°C° 0 mm 4 mps 705 mmHg 26%
    20:00 +13°C° 0 mm 4 mps 704 mmHg 30%
    21:00 +12°C° 0 mm 4 mps 704 mmHg 32%
    22:00 +12°C° 0 mm 4 mps 705 mmHg 34%
    23:00 +11°C° 0 mm 4 mps 705 mmHg 37%

    22 February, Saturday

    Time Temperature Precipitation Wind Pressure Humidity
    00:00 +11°C° 0 mm 4 mps 704 mmHg 39%
    01:00 +10°C° 0 mm 4 mps 704 mmHg 41%
    02:00 +9°C° 0 mm 3 mps 704 mmHg 44%
    03:00 +9°C° 0 mm 3 mps 704 mmHg 48%
    04:00 +8°C° 0 mm 3 mps 704 mmHg 52%
    05:00 +8°C° 0 mm 3 mps 704 mmHg 56%
    06:00 +8°C° 0 mm 4 mps 705 mmHg 55%
    07:00 +10°C° 0 mm 5 mps 705 mmHg 53%
    08:00 +11°C° 0 mm 6 mps 706 mmHg 51%
    09:00 +13°C° 0 mm 6 mps 706 mmHg 42%
    10:00 +15°C° 0 mm 6 mps 707 mmHg 33%
    11:00 +16°C° 0 mm 6 mps 707 mmHg 24%
    12:00 +17°C° 0 mm 6 mps 707 mmHg 22%
    13:00 +20°C° 0 mm 6 mps 706 mmHg 20%
    14:00 +21°C° 0 mm 6 mps 706 mmHg 18%
    15:00 +20°C° 0 mm 6 mps 706 mmHg 21%
    16:00 +19°C° 0 mm 6 mps 706 mmHg 24%
    17:00 +17°C° 0 mm 7 mps 705 mmHg 26%
    18:00 +15°C° 0 mm 6 mps 705 mmHg 35%
    19:00 +13°C° 0 mm 5 mps 706 mmHg 43%
    20:00 +10°C° 0 mm 4 mps 706 mmHg 52%
    21:00 +10°C° 0 mm 4 mps 706 mmHg 55%
    22:00 +8°C° 0 mm 4 mps 706 mmHg 58%
    23:00 +8°C° 0 mm 4 mps 706 mmHg 61%
    Show more